Regional Weather Roundup
Issued by NWS Wilmington, NC

Home | Current Version | Previous Version | Text Only | Print | Product List | Glossary On
Versions: 1 2 3 4 5 6 7 8 9 10 11 12 13 14 15 16 17 18 19 20 21 22 23 24 25 26 27 28 29 30 31 32 33 34 35 36 37 38 39 40 41 42 43 44 45 46 47 48 49 50
000
ASUS42 KILM 281313
RWRILM
RWRILM
REGIONAL HOURLY WEATHER ROUNDUP
NATIONAL WEATHER SERVICE WILMINGTON NC
900 AM EDT WED JUN 28 2017

NOTE: "FAIR" INDICATES FEW OR NO CLOUDS BELOW 12,000 FEET WITH NO
SIGNIFICANT WEATHER AND/OR OBSTRUCTIONS TO VISIBILITY.

...............WFO WILMINGTON COUNTY WARNING AREA...............

......COASTAL NC AND SC COUNTIES......

CITY           SKY/WX    TMP DP  RH WIND       PRES   REMARKS
WILMINGTON     SUNNY     76  58  53 NE9       30.17R
N MYRTLE BEACH SUNNY     77  58  51 NE9       30.16R
MYRTLE BEACH   SUNNY     77  57  50 NE13      30.17R

......INLAND NC AND SC COUNTIES.......

CITY           SKY/WX    TMP DP  RH WIND       PRES   REMARKS
LUMBERTON      SUNNY     74  57  55 E8        30.17R
ELIZABETHTOWN  NOT AVBL
WHITEVILLE     SUNNY     73  60  63 NE3       30.17R
FLORENCE       SUNNY     74  57  55 E10       30.17R
DARLINGTON     SUNNY     72  60  66 NE7       30.18R
KINGSTREE      FAIR      73  61  64 CALM      30.17R
HARTSVILLE     FAIR      72  55  56 E7        30.17S
BENNETTSVILLE  FAIR      73  57  56 NE6       30.17S
CONWAY         FAIR      73  59  60 NE7       30.17R
GEORGETOWN     FAIR      77  64  65 NE6       30.17R
MARION         FAIR      73  59  60 NE9       30.17R

....................REST OF NORTH CAROLINA......................

.........EASTERN NC.........

CITY           SKY/WX    TMP DP  RH WIND       PRES   REMARKS
CAPE HATTERAS  NOT AVBL
JACKSONVILLE   SUNNY     73  60  63 N6        30.18R
MOREHEAD CITY  SUNNY     78  65  63 N9        30.16R
KENANSVILLE    SUNNY     70  61  73 NE5       30.19R
NEW BERN       SUNNY     72  61  68 N7        30.18R
ELIZABETH CITY SUNNY     73  59  61 NE14      30.18R

.........CENTRAL NC.........

CITY           SKY/WX    TMP DP  RH WIND       PRES   REMARKS
RALEIGH DURHAM MOSUNNY   70  52  52 E12       30.20R
ROCKY MOUNT    SUNNY     72  55  55 NE9       30.19R
ROANOKE RAPIDS NOT AVBL
FAYETTEVILLE   MOSUNNY   72  59  63 NE8       30.18R
HOFFMAN        SUNNY     71  56  57 E6        30.17S

.........WESTERN NC.........

CITY           SKY/WX    TMP DP  RH WIND       PRES   REMARKS
CHARLOTTE      MOSUNNY   71  53  52 NE7       30.20R
GREENSBORO     MOSUNNY   67  54  63 E6        30.20S
HICKORY        NOT AVBL
BOONE          NOT AVBL
ASHEVILLE      NOT AVBL

.....................REST OF SOUTH CAROLINA.....................

.........EASTERN SC.........

CITY           SKY/WX    TMP DP  RH WIND       PRES   REMARKS
CHARLESTON     PTSUNNY   77  65  66 NE9       30.15R
BEAUFORT MCAS  CLOUDY    78  70  76 NE6       30.14R
HILTON HEAD    MOSUNNY   77  70  78 N9        30.14R

.........CENTRAL SC.........

CITY           SKY/WX    TMP DP  RH WIND       PRES   REMARKS
COLUMBIA       MOSUNNY   76  57  51 E8        30.16R
ORANGEBURG     SUNNY     74  60  61 E7        30.16R
SUMTER SHAW    SUNNY     75  57  54 E8        30.14S

.........WESTERN SC.........

CITY           SKY/WX    TMP DP  RH WIND       PRES   REMARKS
GREENVILLE     NOT AVBL
ROCK HILL      SUNNY     70  57  63 CALM      30.20R
ANDERSON       MOSUNNY   71  55  56 NE8       30.18R
CLEMSON        NOT AVBL
GREENWOOD      SUNNY     69  59  70 E3        30.18S


...................COASTAL AND OFFSHORE REPORTS..................

................LOCAL PIERS AND NC RESERVE................


STATION/POSITION TIME  SKY/WX   TEMP    WIND        PRES    VSBY
                                AIR SEA DIR/SP/G
                 (UTC)          (F)     (DEG/KT/KT) (MB)    (MI)
JOHNY MRCER PIER 1248            75 80   20/ 12/ 14 1020.3R
NC RESRV MASNBRO NOT AVBL
OCEAN CREST PIER NOT AVBL
SPRINGMAID  PIER 1248                               1020.9R


................COASTAL AND OFFSHORE BUOYS................


STATION/POSITION TIME  SKY/WX   TEMP    WIND        PRES    VSBY
                                AIR SEA DIR/SP/G
                 (UTC)          (F)     (DEG/KT/KT) (MB)    (MI)
DIMNDSHOAL 41025 1250            76 80  360/ 10/ 12 1020.6R
WVE H/P(F/S)=  2/ 8 SWL H/P/D(F/S/D)=  2/ 80/ 8

CAPE LOOKOUT     1200            76      10/ 10/ 13 1020.2R
ONSLOW BAY 41036 NOT AVBL
ONSLOW BAY 41064 1208            77 80   50/ 12/ 16 1020.5R
ONSLOW BAY 41159 1243               80                N/A
WVE H/P(F/S)=  3/ 4

MASNBO INL 41110 1259               79                N/A
WVE H/P(F/S)=  3/ 4

WILM HARBR 41108 NOT AVBL
27SE WRITB 41037 1208            79 80   70/ 14/ 19 1020.2R
FRYING PAN 41013 1240            79 80   50/ 16/ 19 1020.0R
SUNST NRSH 41024 1208            74 79   70/ 10/ 14 1020.4R
CAPRS NRSH 41029 1208            85 83   60/ 17/ 23 1019.5R
EDISTO     41004 1250            79 81   50/ 14/ 16 1019.9R
WVE H/P(F/S)=  2/ 8 SWL H/P/D(F/S/D)=  2/140/ 8



..........OFFSHORE BUOYS BEYOND 100 NM OFFSHORE...........
.....IN A TRIANGLE---HAT TO BERMUDA TO BAHAMAS TO HAT.....


STATION/POSITION TIME  SKY/WX   TEMP    WIND        PRES    VSBY
                                AIR SEA DIR/SP/G
                 (UTC)          (F)     (DEG/KT/KT) (MB)    (MI)
150E HAT   41001 1240            78 78   10/ 10/ 14 1019.6R
W BERMUDA  41048 1240            80 81  300/ 12/ 14 1018.6R
ATLANTIC S 41049 1150            81 82  120/  8/ 10 1021.3
WVE H/P(F/S)=  3/ 8 SWL H/P/D(F/S/D)=  3/140/ 8

E BAHAMAS  41046 1240            82 83   90/  8/ 12 1019.6R
NE BAHAMAS 41047 1250            82 83  180/ 10/ 12 1019.5R
WVE H/P(F/S)=  3/ 7 SWL H/P/D(F/S/D)=  2/160/ 7

120E CANVRL41010 1240            78 83  330/ 16/ 17 1017.5R

END



USA.gov is the U.S. government's official web portal to all federal, state and local government web resources and services.